Temp
15 14 14 14 13 12 9 8 10 6 7 8 8 10 11 12 14 11 11 11 12 12 13 13 14 15 14 15 15 15 14 13 13 15 17 18 17 16 16 13 12 11 10 10
14 14 14 14 13 11 9 7 6 6 6 9 7 8 9 10 10 11 10 10 11 11 11 11 12 13 14 14 14 14 13 12 11 15 17 16 15 16 15 14 13 11 10 11
14 14 14 13 12 10 10 5 6 5 6 5 8 8 8 8 9 9 10 9 9 9 10 10 10 11 12 13 13 10 11 12 11 11 13 14 12 13 14 13 10 10 10 12
13 12 13 12 11 9 9 6 7 7 6 5 6 8 7 8 8 8 9 8 9 10 9 10 10 12 10 12 11 11 11 10 11 12 12 12 12 12 12 11 12 10 11 12
12 11 11 11 9 8 6 4 5 5 5 6 6 6 7 8 8 8 8 9 9 10 9 11 10 11 10 11 12 11 12 9 10 8 11 11 10 11 11 12 13 13 12 9
11 11 11 9 9 8 4 3 4 6 4 5 6 7 8 8 8 7 8 8 8 9 9 11 12 12 12 12 12 11 11 10 9 8 10 10 9 10 12 13 13 13 10 8
9 8 8 7 7 8 6 4 5 6 7 6 7 7 7 7 7 7 8 9 7 9 11 11 11 11 11 11 11 11 10 10 9 8 9 7 10 13 14 12 12 12 8 8
6 5 6 6 7 8 7 5 6 6 7 7 7 8 8 7 7 7 8 10 10 10 10 8 8 9 10 10 11 11 11 10 8 7 8 9 11 12 10 10 10 6 5 6
5 5 5 6 6 6 7 6 7 8 8 8 10 9 9 9 9 10 10 10 10 9 8 7 6 8 10 10 12 13 12 10 8 8 7 7 11 10 9 11 9 6 4 5
5 5 5 5 5 6 7 6 6 10 9 11 11 11 11 12 12 11 10 9 8 9 7 6 7 7 10 9 9 10 11 10 7 7 6 8 8 9 10 7 6 5 5 5
4 4 5 5 6 6 7 5 6 9 10 8 9 10 10 10 11 10 9 8 8 7 6 7 8 8 9 9 10 9 9 8 7 8 6 5 10 9 6 6 6 6 5 5
4 4 5 5 5 6 7 6 6 8 9 7 8 8 9 8 9 10 9 9 9 8 7 8 7 7 8 8 6 10 8 9 7 7 7 10 10 6 8 7 4 5 5 4
4 4 5 5 5 6 6 6 7 8 9 8 9 8 8 7 8 8 8 9 10 9 10 7 7 6 8 7 8 7 8 9 7 6 9 9 9 10 8 7 6 6 4 5
3 4 4 5 5 6 6 6 7 8 10 8 7 8 8 7 8 8 8 8 9 9 9 7 7 6 8 7 7 7 8 9 8 7 8 8 9 7 7 6 7 5 7 7
3 3 4 4 5 5 6 6 6 6 8 7 8 9 8 7 7 7 8 8 8 8 7 7 6 8 7 8 8 7 9 8 7 6 7 7 8 8 7 5 5 6 6 7
3 3 4 4 4 5 7 5 5 5 6 7 8 8 8 7 7 7 7 8 8 7 7 7 8 9 7 5 6 9 10 10 10 8 7 6 7 8 7 5 7 7 6 7
3 3 3 4 4 5 6 4 4 4 6 7 8 8 8 8 8 8 8 8 7 7 7 6 7 7 7 5 6 8 9 9 8 7 5 4 6 5 5 6 6 6 7 6
3 3 3 4 4 4 5 3 3 4 7 9 7 8 8 8 7 5 5 6 6 6 6 6 6 7 6 5 8 9 9 9 7 7 6 4 5 6 6 6 6 5 5 5
3 3 4 4 6 5 3 3 3 4 5 5 7 8 6 8 7 6 5 5 4 6 4 5 6 6 5 8 9 9 7 6 5 6 6 6 6 5 5 5 5 4 4 4
3 5 5 2 4 2 3 5 4 4 4 6 7 9 7 8 7 6 5 5 5 6 6 8 5 6 9 10 10 8 7 6 6 5 4 4 4 4 4 4 4 4 4 4
6 6 4 4 3 4 4 3 3 4 4 7 8 9 7 8 6 6 7 7 7 6 7 6 7 8 6 10 9 7 6 6 5 5 5 5 4 4 4 5 6 5 4 3
4 4 4 4 4 3 3 5 7 7 8 9 8 8 8 7 7 6 7 6 7 6 7 6 7 8 9 8 7 6 6 6 5 5 5 5 5 6 6 6 5 3 3 1
4 4 3 3 4 3 4 5 7 8 8 8 7 6 7 6 6 6 7 6 6 10 7 8 8 6 7 6 6 6 6 6 6 6 5 5 5 5 4 3 3 0 0 -0
3 3 3 4 4 5 8 7 7 7 8 8 8 7 7 7 6 6 5 7 8 7 7 8 4 4 4 5 5 5 5 4 4 5 4 2 2 1 0 1 -0 0 0 -0
3 4 4 5 7 7 7 7 7 8 9 8 7 7 7 6 6 6 7 7 7 8 7 4 4 5 4 5 4 4 3 2 2 2 2 1 1 0 0 0 0 -0 0 0
4 5 4 6 6 5 5 5 5 8 8 8 7 6 6 6 7 7 7 7 8 5 4 4 4 4 3 3 2 1 1 1 1 2 2 2 1 0 1 1 1 0 0 0
4 5 6 5 4 4 4 4 5 7 7 6 7 5 6 8 7 7 9 7 4 4 4 4 3 2 1 1 0 -0 -0 1 1 1 1 1 0 1 1 2 2 1 0 0
Height
724 728 732 737 742 743 748 755 760 769 772 778 779 768 764 761 757 765 765 764 760 759 758 759 752 747 747 748 748 750 755 755 747 736 729 725 728 728 730 747 743 747 755 735
716 720 724 727 733 732 742 752 764 769 770 768 773 773 766 765 764 761 763 762 760 760 763 765 758 750 749 753 751 750 754 755 756 729 719 728 731 727 730 737 740 745 756 728
707 710 713 717 721 726 732 750 759 768 768 770 759 764 765 764 764 763 761 763 763 766 763 762 760 759 756 757 756 766 765 759 760 754 740 741 746 740 739 743 754 750 740 726
695 702 702 707 712 719 728 740 743 746 757 760 762 759 759 758 761 766 763 765 760 758 761 758 755 753 762 759 761 764 766 763 758 750 747 746 745 744 745 747 742 744 734 721
694 694 698 703 708 714 723 738 745 749 753 751 757 761 756 754 758 760 760 757 756 754 757 750 758 753 759 756 752 755 756 761 758 763 752 752 750 746 740 734 726 720 718 737
687 688 692 696 702 711 723 733 738 733 749 754 754 751 746 747 752 756 756 757 759 756 757 754 753 751 751 750 751 754 753 754 757 755 749 747 750 744 731 719 715 714 721 741
683 687 689 699 705 706 711 722 730 736 741 744 745 747 748 749 751 754 754 757 761 759 756 756 755 754 754 754 753 752 755 755 757 759 752 761 732 721 712 715 718 716 734 738
684 691 698 703 706 708 711 721 725 732 733 736 740 741 744 748 752 756 754 751 757 756 759 765 762 751 747 742 740 743 746 751 757 759 747 736 727 716 730 728 726 744 750 743
694 698 703 705 707 714 716 721 725 728 727 730 729 733 738 741 745 747 746 754 758 759 763 766 771 757 736 736 725 723 729 736 750 752 754 747 722 732 736 725 728 743 750 744
700 703 704 705 712 717 720 724 726 727 725 724 722 726 730 730 732 737 741 752 761 761 766 769 763 755 742 742 737 732 728 729 746 750 753 739 738 737 730 738 744 745 745 740
704 706 706 709 713 718 720 725 728 729 724 733 734 737 736 736 738 740 745 755 757 760 767 762 754 746 736 734 730 736 737 742 742 737 745 751 729 735 750 747 742 745 742 738
707 708 711 712 716 719 724 728 731 727 727 739 741 744 745 746 747 745 747 750 752 756 758 755 755 751 747 743 749 730 738 736 743 745 736 726 726 743 739 739 745 744 740 736
711 714 712 715 722 725 727 727 730 727 733 740 740 746 750 750 750 751 751 748 751 751 750 756 756 758 746 746 739 742 739 733 739 746 730 728 730 730 734 738 741 738 738 730
720 716 716 723 729 729 728 728 730 732 732 735 746 749 751 753 752 754 755 757 756 754 752 753 755 755 748 748 744 740 735 732 732 733 730 728 727 733 736 735 735 735 728 725
721 722 723 732 735 729 729 733 735 736 737 737 742 746 752 753 753 754 756 757 758 756 753 753 753 748 748 742 738 735 729 731 734 734 730 727 726 727 731 736 732 728 726 723
728 729 732 735 731 731 731 734 739 742 742 740 737 747 749 751 753 754 756 755 757 756 753 751 746 746 752 750 737 725 724 723 720 723 728 729 727 724 728 729 726 725 724 721
732 732 734 734 734 733 734 741 749 748 746 744 738 736 748 748 751 751 752 753 753 752 751 750 748 747 749 748 737 726 722 722 727 729 730 732 725 728 729 727 727 725 722 721
735 736 735 736 738 738 744 749 749 751 747 743 740 737 743 749 747 753 756 754 754 754 751 749 747 742 743 739 721 719 720 721 726 727 728 732 729 727 727 727 727 724 722 721
736 736 738 740 741 744 753 752 753 753 756 750 743 738 745 748 748 750 755 755 756 749 750 746 744 738 734 720 714 716 722 726 729 727 727 727 727 728 728 728 726 725 723 721
736 738 742 749 752 754 754 754 757 758 758 753 746 739 746 747 746 747 750 751 745 737 733 729 737 722 713 709 709 717 721 725 727 728 729 730 729 729 729 728 726 725 722 721
739 744 750 755 756 756 758 760 759 755 754 747 741 739 744 744 748 746 743 738 734 729 722 726 713 704 710 706 713 720 724 727 728 729 730 731 731 729 727 725 721 721 721 721
748 750 754 757 758 759 760 752 746 743 736 734 736 739 742 744 745 746 739 736 730 725 722 721 708 704 701 709 717 722 725 727 728 729 729 729 728 725 723 722 721 722 722 722
752 754 757 758 757 759 755 750 735 734 735 737 741 745 743 745 747 744 736 733 726 709 716 704 698 710 713 717 721 723 723 724 725 725 725 725 725 724 724 724 723 724 723 721
754 755 756 754 753 748 733 735 734 738 737 737 739 741 741 739 741 739 737 722 714 711 703 700 722 723 723 723 724 724 724 725 725 724 726 727 727 727 727 725 723 722 720 719
754 754 749 746 738 737 738 740 740 737 735 736 738 738 738 738 739 734 726 721 711 700 703 720 724 722 723 724 726 727 728 728 727 726 726 726 726 725 724 722 720 719 717 715
752 749 747 741 741 744 745 746 745 739 736 737 738 739 738 733 728 723 719 708 699 715 722 725 725 725 727 727 730 731 732 730 728 726 724 724 724 723 720 718 715 715 714 711
748 744 743 744 745 746 746 746 744 739 737 739 734 737 730 718 718 712 701 708 720 724 725 726 728 730 730 731 731 731 731 729 726 725 724 724 722 719 717 713 711 710 711 709
Wind_Speed
38 36 36 35 31 30 30 6 3 13 22 3 2 5 6 2 8 2 3 3 6 5 3 4 6 8 5 3 4 4 1 4 9 17 19 20 18 18 17 7 6 6 5 10
39 40 40 39 35 28 13 4 3 2 2 4 5 3 4 5 7 8 7 8 9 6 6 5 11 8 5 6 6 1 4 3 6 9 2 5 4 9 8 8 11 16 12 13
39 43 45 42 36 32 21 4 4 1 2 1 3 7 5 5 5 3 5 3 5 4 6 10 4 5 8 5 2 8 3 5 10 11 16 15 16 18 17 15 11 15 18 23
30 34 44 29 22 37 12 1 3 1 6 6 4 7 4 5 6 7 8 4 10 7 5 8 7 8 6 8 9 5 4 8 12 18 18 17 19 19 18 19 20 20 22 26
29 21 22 19 34 40 7 5 3 2 2 5 11 7 6 8 5 8 5 6 9 14 5 9 3 7 8 9 9 15 13 14 15 18 16 16 20 19 21 22 24 24 19 17
25 21 22 29 41 35 5 4 2 2 7 4 5 4 10 9 8 7 5 11 4 5 7 9 11 10 10 11 11 12 14 11 12 17 16 17 16 13 20 24 16 16 12 14
22 27 31 38 40 28 12 7 5 3 3 4 5 3 9 7 9 4 3 2 1 1 2 5 7 10 13 15 16 14 16 15 11 13 16 17 15 20 21 9 11 13 12 15
35 31 28 27 20 12 21 12 4 2 3 4 7 9 5 8 6 3 4 6 7 3 3 2 5 7 13 20 21 18 16 14 11 13 15 19 24 19 6 11 15 13 13 17
28 28 25 24 22 24 25 18 11 3 4 6 8 9 8 5 6 7 6 10 7 3 1 2 4 4 9 6 7 19 19 16 11 13 15 17 19 13 7 13 12 13 11 14
26 25 26 27 22 17 13 7 3 3 1 6 5 4 7 4 6 6 10 7 2 2 2 5 8 12 15 16 18 16 11 7 12 12 10 11 5 14 11 5 8 17 13 13
27 25 24 22 19 18 10 8 7 3 2 7 7 5 4 4 1 3 6 6 4 4 4 5 8 9 12 13 12 10 12 9 10 10 12 10 12 8 3 5 9 13 14 14
25 23 21 19 17 15 9 8 5 11 6 4 5 7 8 11 10 3 4 3 1 4 4 3 4 7 7 10 9 12 11 9 7 7 8 14 8 5 9 4 5 10 16 19
25 23 22 21 18 17 16 15 7 5 4 5 4 4 4 3 3 4 2 4 4 3 4 3 4 8 8 9 10 13 10 15 7 11 11 12 12 12 10 8 10 15 18 15
25 25 25 23 19 15 16 15 8 5 1 3 4 5 5 2 2 3 5 6 4 4 4 4 5 8 6 9 13 13 11 12 12 12 10 11 10 6 9 13 17 17 15 12
24 24 24 22 21 19 18 17 14 10 3 2 6 6 4 1 2 3 4 4 5 6 5 5 7 8 8 9 11 11 12 9 5 7 13 8 10 10 10 14 16 12 12 13
21 20 19 15 11 6 5 4 13 11 7 2 2 6 4 3 2 3 5 7 5 6 6 6 4 10 5 4 7 13 10 12 8 4 9 10 12 11 12 9 10 10 11 10
18 17 16 16 15 14 7 6 6 7 3 0 2 6 4 3 1 2 3 4 4 5 5 5 9 9 4 5 12 17 15 11 6 5 8 7 6 2 7 8 9 12 12 12
17 16 16 14 11 12 14 10 9 7 3 2 0 2 5 1 1 1 3 2 2 3 4 4 6 6 5 5 10 7 5 4 4 6 4 5 6 5 7 8 8 9 9 9
18 16 11 5 6 7 6 7 7 7 3 3 0 2 3 3 1 1 2 2 3 4 4 5 4 5 7 10 9 7 1 2 2 4 5 3 5 6 8 8 9 10 10 9
11 6 5 3 5 4 6 4 3 2 3 1 2 1 1 0 1 2 2 4 3 3 7 3 4 8 16 16 7 1 5 5 4 3 4 6 6 7 8 9 7 7 6 8
3 3 3 7 3 2 2 1 2 2 3 4 3 2 2 1 2 2 3 2 3 3 3 4 3 4 4 7 7 7 7 4 3 2 2 3 4 5 6 8 6 7 12 10
5 6 6 2 1 1 1 2 2 4 1 2 1 2 1 1 1 2 3 3 3 5 5 3 3 3 11 9 9 7 5 1 1 1 1 3 7 7 6 8 8 11 13 13
2 3 2 1 2 2 3 4 3 2 3 1 1 3 1 1 2 3 3 4 5 2 3 3 2 8 8 8 5 2 1 2 3 3 5 7 7 10 11 10 12 11 10 11
1 2 2 3 4 4 2 3 3 3 0 2 2 3 3 2 3 3 4 5 4 4 4 0 3 6 7 4 2 0 3 5 5 8 7 6 8 9 10 11 11 11 10 12
2 3 3 5 4 1 2 3 3 3 3 3 4 3 3 3 4 3 4 4 4 4 3 2 2 3 3 0 2 4 4 4 5 6 6 5 7 5 10 13 13 11 12 14
2 4 3 4 3 4 3 4 5 7 5 3 2 3 3 5 3 5 6 4 3 3 3 5 5 4 2 3 3 4 5 6 8 9 8 9 5 7 11 16 17 3 10 15
3 2 3 4 3 4 3 2 6 9 4 2 3 4 6 3 4 4 3 4 2 2 3 3 4 4 4 4 3 1 6 9 9 10 9 11 14 13 14 10 10 8 11 16
Wind_Direction
242 241 241 240 245 254 179 136 183 152 148 136 204 224 194 162 207 156 198 204 226 235 248 232 242 238 236 181 183 222 90 293 270 273 281 280 286 282 279 262 282 271 293 264
244 243 239 245 247 216 156 121 113 127 169 192 200 239 257 234 196 206 188 212 217 215 203 231 240 241 148 174 212 260 137 233 303 293 207 4 332 332 262 280 284 274 280 277
252 245 243 242 244 198 158 138 138 129 187 1 216 178 212 209 233 230 197 209 154 178 217 226 259 222 186 190 208 75 11 253 248 260 281 312 295 285 280 284 279 282 269 290
260 260 252 243 224 191 155 121 185 209 181 210 189 182 172 183 191 219 213 204 208 190 223 223 222 219 193 227 168 201 228 260 260 269 280 289 288 286 289 284 280 273 282 275
255 233 222 210 192 177 111 136 151 80 103 114 179 180 199 193 167 173 199 230 212 223 211 210 196 240 237 251 214 227 224 254 267 270 271 276 277 277 271 272 273 276 296 301
220 212 208 194 185 168 124 132 85 133 148 152 158 204 208 206 154 204 214 213 205 237 236 273 277 285 273 266 262 258 263 264 259 267 279 284 280 267 272 275 297 294 319 325
175 169 170 171 171 182 124 154 134 110 166 171 186 196 190 188 181 152 178 239 276 22 351 321 294 277 273 269 262 260 263 260 262 268 276 264 270 269 281 343 291 350 2 347
152 150 151 155 153 133 136 136 110 141 137 161 168 163 158 142 159 173 183 207 90 150 53 347 293 263 249 248 244 239 238 249 258 262 260 277 284 293 0 328 304 51 357 335
131 128 123 117 116 126 119 115 134 168 132 191 167 171 179 181 187 195 157 74 68 62 298 180 239 256 310 289 318 222 226 216 229 247 258 267 272 22 334 315 281 12 349 331
127 125 123 121 123 122 110 99 41 221 166 65 32 162 196 210 194 203 185 133 131 205 224 243 259 267 272 279 278 275 272 260 229 244 254 272 333 334 333 302 330 331 325 332
123 120 121 124 121 122 118 85 48 0 96 55 42 19 45 32 26 201 114 145 199 182 225 264 278 271 277 290 290 291 286 297 291 269 260 282 15 12 17 309 309 312 314 319
119 116 116 114 108 104 122 109 88 49 67 76 59 50 37 26 29 349 121 221 116 206 219 255 314 307 305 295 289 293 290 288 300 283 282 296 326 168 251 21 302 302 320 303
109 109 108 111 109 101 102 101 101 108 104 126 132 94 93 60 22 360 279 208 278 231 300 291 294 292 305 298 297 323 315 303 289 308 295 311 320 312 358 347 304 320 294 296
111 105 105 108 102 100 94 83 54 108 85 107 112 127 101 57 193 242 274 321 296 331 297 263 270 278 297 293 290 287 288 289 278 279 287 289 296 338 315 315 305 297 300 315
106 102 105 109 103 92 88 79 63 41 360 97 122 144 66 117 180 231 237 251 265 267 248 265 260 283 293 287 280 273 283 301 287 282 283 283 293 301 315 291 290 298 322 322
107 103 103 105 88 62 107 62 48 33 12 51 141 124 147 122 182 216 232 240 236 254 271 272 267 266 288 274 271 292 301 278 282 326 354 329 308 305 306 291 318 326 318 324
106 97 92 73 58 53 59 69 47 13 336 145 213 141 138 153 223 217 242 219 255 251 260 258 262 273 252 259 268 280 285 304 304 359 7 328 323 333 319 350 331 327 315 358
107 100 95 89 73 90 70 44 33 3 303 296 250 121 150 177 311 181 335 223 265 261 248 271 264 267 222 255 261 281 279 315 309 302 293 234 285 336 360 348 336 333 344 343
101 96 77 69 40 35 45 41 44 13 347 327 39 304 64 181 164 191 190 199 233 226 219 221 225 231 222 238 259 286 46 189 263 336 347 348 6 8 360 339 343 339 340 341
82 57 52 43 49 73 17 21 32 14 327 310 263 350 62 330 183 233 216 193 240 247 214 191 215 248 248 252 279 85 88 53 45 24 25 10 357 358 350 342 337 327 328 331
29 62 65 83 93 39 22 25 276 174 207 201 243 47 347 96 273 311 236 261 246 258 161 217 230 255 175 150 118 101 88 92 96 78 58 6 317 314 318 311 327 354 352 8
57 89 91 122 224 149 298 223 186 247 85 146 66 78 347 236 220 249 249 243 246 255 148 237 253 42 127 121 114 119 123 187 127 248 299 301 300 304 324 340 347 5 342 351
64 74 89 256 114 212 235 177 216 149 131 108 25 310 297 182 265 255 267 242 237 249 221 235 32 134 109 102 82 44 175 265 286 296 287 277 295 344 351 330 335 337 328 335
72 154 176 228 159 247 236 8 15 87 48 314 274 254 231 231 217 233 258 244 265 249 239 50 52 37 64 86 110 320 330 15 356 333 359 6 342 322 315 307 310 311 311 321
201 192 227 213 246 322 348 353 304 282 276 272 286 265 229 233 244 236 258 247 254 248 22 107 138 177 166 56 7 350 29 359 341 329 316 308 284 304 303 294 290 282 297 301
251 224 246 264 265 259 261 271 273 279 283 292 251 255 267 228 230 223 228 255 275 62 31 23 14 12 39 50 44 15 336 322 308 305 310 307 321 289 298 297 281 296 312 314
252 233 262 309 298 285 292 207 262 284 272 258 268 238 228 237 243 247 285 329 46 357 348 357 10 356 27 13 10 350 313 310 305 309 319 315 300 293 293 297 313 334 331 314